FLOCK 3P-3

Last updated on Wed Feb 14 2018 16:20:21 GMT+0000 (Coordinated Universal Time)

1 41968U 17008W 18044.86606730 .00001312 00000-0 57264-4 0 9992 2 41968 97.4654 110.3317 0009881 70.1367 290.0934 15.23902954 55244

Satellite not in orbit

FLOCK 3P-3